Regional Weather Roundup
Issued by NWS Charleston, SC

Current Version | Previous Version | Graphics & Text | Print | Product List | Glossary On
Versions: 1 2 3 4 5 6 7 8 9 10 11 12 13 14 15 16 17 18 19 20 21 22 23 24 25 26 27 28 29 30 31 32 33 34 35 36 37 38 39 40 41 42 43 44 45 46 47 48 49 50
000
ASUS42 KCHS 111210
RWRCHS

REGIONAL WEATHER ROUNDUP
NATIONAL WEATHER SERVICE CHARLESTON SC
800 AM EDT FRI JUL 11 2014

NOTE: "FAIR" INDICATES FEW OR NO CLOUDS BELOW 12,000 FEET WITH NO
SIGNIFICANT WEATHER AND/OR OBSTRUCTIONS TO VISIBILITY.

NOT ALL STATIONS ARE QUALITY CONTROLLED BY THE NATIONAL
WEATHER SERVICE. USE DATA WITH CAUTION...ESPECIALLY
DEWPOINT OBSERVATIONS.

SCZ027-030-031-034>040-042>050-111300-
...SOUTH CAROLINA...

CITY           SKY/WX    TMP DP  RH WIND       PRES   REMARKS
N CHARLESTON   PTSUNNY   78  70  76 SW5       30.13R
6HR MIN TEMP:  74; 6HR MAX TEMP:  78;

WATERFRONT PRK   N/A     79 N/A N/A SW3         N/A
FORT JOHNSON   NOT AVBL
MOUNT PLEASANT FAIR      75  72  88 CALM      30.14R
JOHNS ISLAND   SUNNY     79  70  73 CALM      30.14R
PINOPOLIS        N/A     77  72  83 SW7       30.03R
MONCKS CORNER    N/A     75  73  94 CALM      30.14R
SUMMERVILLE    FAIR      72  72 100 CALM      30.14R
BEAUFORT MCAS  PTSUNNY   76  72  87 W6        30.13R
6HR MIN TEMP:  73; 6HR MAX TEMP:  77;

BEAUFORT ARPT  FAIR      77  73  88 SW3       30.13R
HILTON HEAD IS PTSUNNY   75  75 100 SW3       30.14R
GEORGETOWN     NOT AVBL
WALTERBORO     PTSUNNY   75 N/A N/A W5        30.14R
ORANGEBURG     CLOUDY    73  70  90 W3        30.14R
6HR MIN TEMP:  72; 6HR MAX TEMP:  73;

BARNWELL       CLOUDY    73  73 100 SW3       30.14R FOG
AIKEN          FOG       72  72 100 SW6       30.16S VSB 1
MANNING        PTSUNNY   73 N/A N/A CALM      30.14R
KINGSTREE      NOT AVBL
COLUMBIA       PTSUNNY   75  70  84 W3        30.12R
6HR MIN TEMP:  74; 6HR MAX TEMP:  76;

SUMTER         CLOUDY    74  73  96 NE3       30.13R
6HR MIN TEMP:  72; 6HR MAX TEMP:  74; 6HR PCP: TRACE;

FLORENCE       PTSUNNY   73  69  87 NE5       30.15R
6HR MIN TEMP:  70; 6HR MAX TEMP:  72;

MYRTLE BEACH   NOT AVBL
N MYRTLE BEACH CLOUDY    72  69  90 N6        30.14R
6HR MIN TEMP:  71; 6HR MAX TEMP:  72; 6HR PCP:  0.05;


$$

GAZ063-065-086>088-099>101-113>116-118-119-134-136>141-150-111300-
...GEORGIA...

CITY           SKY/WX    TMP DP  RH WIND       PRES   REMARKS
SAVANNAH ARPT  MOSUNNY   75  72  90 CALM      30.14R
6HR MIN TEMP:  74; 6HR MAX TEMP:  76;

HUNTER AAF     MOSUNNY   74  74 100 CALM      30.12R
6HR MIN TEMP:  72; 6HR MAX TEMP:  74;

FORT STEWART   MOSUNNY   73  71  95 CALM      30.13R
6HR MIN TEMP:  71; 6HR MAX TEMP:  73;

STATESBORO     NOT AVBL
SYLVANIA       MOSUNNY   73  73 100 CALM      30.14S FOG
CLAXTON        FAIR     N/A N/A N/A CALM      30.14R
THOMSON        CLOUDY    74  74 100 CALM      30.18R
AUGUSTA-BUSH   PTSUNNY   74  71  91 CALM      30.12R
6HR MIN TEMP:  69; 6HR MAX TEMP:  74;

AUGUSTA-DANIEL PTSUNNY   75  71  87 SW3       30.14R
SWAINSBORO     FAIR      73  73 100 S5        30.15R
VIDALIA        HVY RAIN  73  72  94 S3        30.15R
ALMA           SUNNY     74  71  91 CALM      30.14R
6HR MIN TEMP:  69; 6HR MAX TEMP:  74;

WAYCROSS       SUNNY     78  76  93 CALM      30.14R
JESUP          NOT AVBL
BRUNSWICK      SUNNY     77  73  88 CALM      30.15R
SAINT SIMONS   MOSUNNY   77  73  87 W6        30.14R
6HR MIN TEMP:  74; 6HR MAX TEMP:  77;


$$

SCZ027-028-034-036>038-045-046-048>050-GAZ119-141-111300-
...LAKE AND SUPPLEMENTAL COASTAL OBSERVATIONS...

STATION/POSITION TIME  TEMP    WIND        PRES    WAVE   SWELL
                       AIR SEA DIR/SP/G            HT/PER HT/PER/DIR
                 (UTC) (F)     (DEG/KT/KT) (MB)    (FT/S) (FT/S/D)
UPR LAKE MARION  NOT AVBL
WINYAH BAY       1100   76     280/  2     1019.0S
LAKE MURRAY      1100   74      CALM  /  2 1019.6R
ACE BASIN NERRS  1100   72        CALM     1019.0S
FORT PULASKI     1200   77 78  270/  4/  5   N/A
SAPELO ISLAND    NOT AVBL

$$

ANZ835-935-AMZ111-154-330-350-352-354-374-450-454-472-111300-
...C-MAN AND BUOY OBSERVATIONS...

STATION/POSITION TIME  TEMP    WIND        PRES    WAVE   SWELL
                       AIR SEA DIR/SP/G            HT/PER HT/PER/DIR
                 (UTC) (F)     (DEG/KT/KT) (MB)    (FT/S) (FT/S/D)
FOLLY BEACH CMAN 1100   77     230/  3/  4 1020.0R
BUOY 41004       1200   81 81  200/  8/ 10 1019.8R   3/ 4   3/ 4
BUOY 41008       1200   81 84  290/  6/  8 1020.1R   2/ 5   2/160/ 5
5E ST. MARYS GA  1200      83                N/A     2/ 5
FRYING PAN BUOY  NOT AVBL
BUOY 41025       1200          VRB  8/ 10  1020.5R   3/ 6   2/180/ 6
CAPE LOOKOUT NC  1100   76     210/  4/  5 1020.2R
BUOY 41002       1110   81 81  210/  8/  8 1022.5R   3/ 9   3/100/ 9
BUOY 41010       1200   82 83  140/  8/  8 1021.0R   2/ 8   2/120/ 8
BUOY 41012       NOT AVBL
ST AUGUSTINE FL  1200   74     190/  6/  7 1021.2R
CAPERS NEARSHORE 1100   80     250/  6/  8   N/A
FRIPP NEARSHORE  1100   80     280/  4/  6   N/A


$$



USA.gov is the U.S. government's official web portal to all federal, state and local government web resources and services.